TimeCDT,TemperatureF,Dew PointF,Humidity,Sea Level PressureIn,VisibilityMPH,Wind Direction,Wind SpeedMPH,Gust SpeedMPH,PrecipitationIn,Events,Conditions,WindDirDegrees,DateUTC
12:56 AM,57.9,53.1,84,30.03,10.0,South,3.5,-,N/A,,Clear,170,2013-08-05 05:56:00
1:56 AM,57.0,53.1,87,30.02,10.0,Calm,Calm,-,N/A,,Scattered Clouds,0,2013-08-05 06:56:00
2:56 AM,61.0,53.1,75,30.00,10.0,South,4.6,-,N/A,,Overcast,180,2013-08-05 07:56:00
3:56 AM,61.0,54.0,78,30.02,10.0,SW,3.5,-,0.00,Rain,Light Rain,230,2013-08-05 08:56:00
4:08 AM,60.8,55.4,82,30.02,5.0,SW,5.8,-,0.02,Rain-Thunderstorm,Thunderstorms and Rain,220,2013-08-05 09:08:00
4:27 AM,59.0,57.2,94,30.01,5.0,Calm,Calm,-,0.06,Rain,Rain,0,2013-08-05 09:27:00
4:56 AM,59.0,57.0,93,30.00,10.0,Calm,Calm,-,0.08,Rain,Light Rain,0,2013-08-05 09:56:00
5:56 AM,59.0,57.0,93,29.93,10.0,SSE,12.7,-,0.02,Rain,Light Rain,160,2013-08-05 10:56:00
6:56 AM,60.1,57.9,93,29.93,10.0,South,6.9,-,0.00,,Scattered Clouds,190,2013-08-05 11:56:00
7:46 AM,60.8,59.0,94,29.95,10.0,NNE,3.5,-,N/A,,Overcast,20,2013-08-05 12:46:00
7:56 AM,61.0,59.0,93,29.95,10.0,Calm,Calm,-,N/A,,Overcast,0,2013-08-05 12:56:00
8:26 AM,60.8,59.0,94,29.95,10.0,Calm,Calm,-,N/A,,Overcast,0,2013-08-05 13:26:00
8:56 AM,62.1,59.0,90,29.94,10.0,East,3.5,-,N/A,,Overcast,80,2013-08-05 13:56:00
9:14 AM,64.4,60.8,88,29.94,10.0,SE,3.5,-,N/A,,Mostly Cloudy,130,2013-08-05 14:14:00
9:32 AM,64.4,60.8,88,29.94,10.0,SSE,3.5,-,N/A,,Mostly Cloudy,150,2013-08-05 14:32:00
9:56 AM,64.9,60.1,84,29.93,10.0,SE,4.6,-,N/A,,Overcast,140,2013-08-05 14:56:00
10:56 AM,69.1,61.0,75,29.90,10.0,SSW,9.2,-,N/A,,Overcast,200,2013-08-05 15:56:00
11:56 AM,69.1,61.0,75,29.89,10.0,South,11.5,-,N/A,,Overcast,180,2013-08-05 16:56:00
12:56 PM,68.0,62.1,81,29.88,10.0,South,8.1,-,N/A,,Overcast,180,2013-08-05 17:56:00
1:56 PM,70.0,62.1,76,29.87,10.0,South,6.9,-,N/A,,Overcast,170,2013-08-05 18:56:00
2:56 PM,70.0,63.0,78,29.86,10.0,Calm,Calm,-,N/A,,Overcast,0,2013-08-05 19:56:00
3:56 PM,70.0,63.0,78,29.85,10.0,South,4.6,-,N/A,,Overcast,190,2013-08-05 20:56:00
4:07 PM,71.6,64.4,78,29.84,10.0,SSE,6.9,-,N/A,,Overcast,160,2013-08-05 21:07:00
4:46 PM,71.6,64.4,78,29.84,10.0,South,6.9,-,N/A,,Overcast,170,2013-08-05 21:46:00
4:56 PM,71.1,64.0,78,29.84,10.0,South,5.8,-,N/A,,Overcast,190,2013-08-05 21:56:00
5:32 PM,71.6,64.4,78,29.84,10.0,SSW,8.1,-,N/A,,Overcast,200,2013-08-05 22:32:00
5:42 PM,71.6,64.4,78,29.83,10.0,South,5.8,-,N/A,,Overcast,170,2013-08-05 22:42:00
5:56 PM,71.1,64.9,81,29.82,9.0,SSW,8.1,-,0.00,Rain,Light Rain,200,2013-08-05 22:56:00
6:06 PM,69.8,66.2,88,29.83,1.8,WSW,6.9,-,0.10,Rain,Heavy Rain,250,2013-08-05 23:06:00
6:20 PM,68.0,66.2,94,29.83,4.0,Calm,Calm,-,0.17,Rain,Light Rain,0,2013-08-05 23:20:00
6:45 PM,69.8,66.2,88,29.83,10.0,SW,4.6,-,0.17,,Overcast,220,2013-08-05 23:45:00
6:56 PM,69.1,66.0,90,29.82,10.0,SSW,6.9,-,0.17,,Mostly Cloudy,200,2013-08-05 23:56:00
7:27 PM,69.8,66.2,88,29.82,10.0,South,4.6,-,N/A,,Overcast,190,2013-08-06 00:27:00
7:49 PM,69.8,64.4,83,29.82,10.0,SSW,8.1,-,N/A,,Mostly Cloudy,200,2013-08-06 00:49:00
7:56 PM,69.1,66.0,90,29.81,10.0,South,6.9,-,N/A,,Mostly Cloudy,190,2013-08-06 00:56:00
8:56 PM,66.9,64.9,93,29.82,10.0,SSW,3.5,-,N/A,,Partly Cloudy,200,2013-08-06 01:56:00
9:56 PM,66.0,64.0,93,29.83,9.0,SSE,4.6,-,N/A,,Clear,150,2013-08-06 02:56:00
10:56 PM,64.9,64.0,97,29.82,7.0,SSE,4.6,-,N/A,,Clear,160,2013-08-06 03:56:00
11:32 PM,64.4,64.4,100,29.83,6.0,South,5.8,-,N/A,,Partly Cloudy,190,2013-08-06 04:32:00
11:56 PM,64.0,64.0,100,29.83,5.0,South,8.1,-,N/A,,Scattered Clouds,180,2013-08-06 04:56:00